Houlton, ME

9:08 PM EST on November 17, 2017 (GMT -0500)
Houlton International

Weather History for KHUL - March, 2013

Change the Weather History Date:

Friday, March 29, 2013

  Actual Average Record
Temperature  
Mean Temperature 36 °F 31 °F  
Max Temperature 48 °F 41 °F 68 °F (1945)
Min Temperature 24 °F 21 °F 0 °F (1959)
Degree Days  
Heating Degree Days 29 34  
Month to date heating degree days 1012 1157  
Since 1 July heating degree days 7117 7730  
Cooling Degree Days 0 0  
Month to date cooling degree days 0 0  
Year to date cooling degree days 0 0  
Moisture  
Dew Point 27 °F    
Average Humidity 66    
Maximum Humidity 92    
Minimum Humidity 40    
Precipitation  
Precipitation 0.03 in 0.08 in 1.40 in (2010)
Month to date precipitation 1.77 2.42  
Year to date precipitation 4.17 7.28  
Snow  
Snow 0.00 in 0.40 in 2.00 in (1964)
Month to date snowfall 0.0 17.1  
Snow Depth 0.00 in    
Sea Level Pressure  
Sea Level Pressure 29.90 in    
Wind  
Wind Speed 4 mph (North)    
Max Wind Speed 14 mph    
Max Gust Speed 18 mph    
Visibility 10 miles    
Events Rain    
T = Trace of Precipitation, MM = Missing Value Source: NWS Daily Summary

Daily Weather History Graph

Daily Weather History Graph

Search for Another Location

Airport or City:

Trip Planner

Search our weather history database for the weather conditions in past years. The results will help you decide how hot, cold, wet, or windy it might be!

Date:

Astronomy

Mar. 29, 2013 Rise Set
Actual Time 6:16 AM EDT 6:56 PM EDT
Civil Twilight 5:46 AM EDT 7:26 PM EDT
Nautical Twilight 5:10 AM EDT 8:02 PM EDT
Astronomical Twilight 4:33 AM EDT 8:39 PM EDT
Moon 10:03 PM EDT (3/29) 7:13 AM EDT (3/29)
Length of Visible Light 13h 40m
Length of Day
12h 39m
Waning Gibbous, 93% of the Moon is Illuminated
Mar 29
Waning Gibbous
Apr 3
Last Quarter
Apr 10
New
Apr 18
First Quarter
Apr 25
Full

Hourly Weather History & Observations

Time (EDT) Temp. Windchill Dew Point Humidity Pressure Visibility Wind Dir Wind Speed Gust Speed Precip Events Conditions
12:53 AM 30.9 °F - 25.0 °F 79% 29.90 in 10.0 mi Calm Calm - N/A   Mostly Cloudy
1:53 AM 28.9 °F - 25.0 °F 85% 29.90 in 10.0 mi Calm Calm - N/A   Mostly Cloudy
2:53 AM 30.0 °F - 26.1 °F 85% 29.89 in 10.0 mi Calm Calm - N/A   Overcast
3:53 AM 30.0 °F - 26.1 °F 85% 29.89 in 10.0 mi Calm Calm - N/A   Overcast
4:53 AM 30.0 °F - 28.0 °F 92% 29.89 in 10.0 mi Calm Calm - N/A   Overcast
5:53 AM 30.9 °F - 28.0 °F 89% 29.89 in 10.0 mi Calm Calm - N/A   Overcast
6:13 AM 30.2 °F - 26.6 °F 86% 29.88 in 10.0 mi Calm Calm - N/A   Overcast
6:53 AM 30.9 °F - 28.0 °F 89% 29.91 in 10.0 mi Calm Calm - N/A   Overcast
7:53 AM 35.1 °F - 30.0 °F 82% 29.91 in 10.0 mi Calm Calm - N/A   Overcast
8:26 AM 37.4 °F - 32.0 °F 81% 29.89 in 10.0 mi Calm Calm - N/A   Overcast
8:53 AM 39.0 °F 34.8 °F 33.1 °F 79% 29.91 in 10.0 mi NW 5.8 mph - N/A   Overcast
9:53 AM 39.0 °F 32.8 °F 33.1 °F 79% 29.92 in 10.0 mi NNW 9.2 mph - 0.00 in Rain Light Rain
10:34 AM 37.4 °F 32.8 °F 33.8 °F 87% 29.90 in 4.0 mi NNW 5.8 mph - 0.03 in Rain Light Rain
10:53 AM 37.9 °F 34.4 °F 34.0 °F 86% 29.92 in 10.0 mi North 4.6 mph - 0.03 in Rain Light Rain
11:53 AM 41.0 °F 35.2 °F 34.0 °F 76% 29.92 in 10.0 mi NNW 9.2 mph - 0.00 in   Overcast
12:05 PM 42.8 °F 40.1 °F 35.6 °F 76% 29.90 in 10.0 mi NW 4.6 mph - N/A   Mostly Cloudy
12:26 PM 42.8 °F 40.1 °F 33.8 °F 70% 29.89 in 10.0 mi NNW 4.6 mph - N/A   Partly Cloudy
12:53 PM 45.0 °F 41.2 °F 30.9 °F 58% 29.91 in 10.0 mi NW 6.9 mph - N/A   Partly Cloudy
1:53 PM 46.0 °F 41.9 °F 27.0 °F 47% 29.88 in 10.0 mi North 8.1 mph - N/A   Partly Cloudy
2:53 PM 46.0 °F 41.9 °F 27.0 °F 47% 29.87 in 10.0 mi North 8.1 mph - N/A   Mostly Cloudy
3:53 PM 46.9 °F - 26.1 °F 44% 29.86 in 10.0 mi North 10.4 mph - N/A   Overcast
4:53 PM 46.9 °F - 24.1 °F 41% 29.86 in 10.0 mi NE 6.9 mph - N/A   Overcast
5:53 PM 44.1 °F 39.0 °F 21.0 °F 40% 29.87 in 10.0 mi NNE 9.2 mph - N/A   Scattered Clouds
6:53 PM 41.0 °F 36.4 °F 21.0 °F 45% 29.89 in 10.0 mi North 6.9 mph - N/A   Clear
7:53 PM 37.0 °F 34.5 °F 18.0 °F 46% 29.91 in 10.0 mi NNE 3.5 mph - N/A   Clear
8:53 PM 30.9 °F - 19.9 °F 64% 29.93 in 10.0 mi Calm Calm - N/A   Clear
9:53 PM 28.0 °F - 21.0 °F 75% 29.94 in 10.0 mi Calm Calm - N/A   Clear
10:53 PM 27.0 °F - 21.0 °F 78% 29.95 in 10.0 mi Calm Calm - N/A   Clear
11:53 PM 25.0 °F - 19.9 °F 81% 29.95 in 10.0 mi Calm Calm - N/A   Clear